Weather History for KLSF - December, 2012

Change the Weather History Date:

Wednesday, December 26, 2012

  Actual Average Record
Temperature  
Mean Temperature 50 °F -  
Max Temperature 62 °F 55 °F 73 °F (2008)
Min Temperature 38 °F 31 °F 21 °F (2001)
Degree Days  
Heating Degree Days 15    
Moisture  
Dew Point 48 °F    
Average Humidity 83    
Maximum Humidity 100    
Minimum Humidity 65    
Precipitation  
Precipitation 1.34 in - - ()
Sea Level Pressure  
Sea Level Pressure 29.70 in    
Wind  
Wind Speed 12 mph (WSW)    
Max Wind Speed 21 mph    
Max Gust Speed 33 mph    
Visibility 7 miles    
Events Rain , Thunderstorm    
Averages and records for this station are not official NWS values.
T = Trace of Precipitation, MM = Missing Value Source: NWS Daily Summary

Daily Weather History Graph

Daily Weather History Graph

Search for Another Location

Airport or City:

Trip Planner

Search our weather history database for the weather conditions in past years. The results will help you decide how hot, cold, wet, or windy it might be!

Date:

Astronomy

Dec. 26, 2012 Rise Set
Actual Time 7:39 AM EST 5:42 PM EST
Civil Twilight 7:12 AM EST 6:09 PM EST
Nautical Twilight 6:41 AM EST 6:39 PM EST
Astronomical Twilight 6:11 AM EST 7:09 PM EST
Moon 4:33 PM EST (12/26) 6:04 AM EST (12/26)
Length of Visible Light 10h 56m
Length of Day
10h 02m
Waxing Gibbous, 97% of the Moon is Illuminated
Dec 26
Waxing Gibbous
Dec 28
Full
Jan 4
Last Quarter
Jan 11
New
Jan 18
First Quarter

Hourly Weather History & Observations

Time (EST) Temp. Windchill Dew Point Humidity Pressure Visibility Wind Dir Wind Speed Gust Speed Precip Events Conditions
12:00 AM 62.6 °F - 60.8 °F 94% 29.62 in 7.0 mi SSE 13.8 mph 23.0 mph N/A Rain , Thunderstorm Light Thunderstorms and Rain
12:04 AM 62.6 °F - 60.8 °F 94% 29.62 in 5.0 mi SE 16.1 mph 23.0 mph N/A Rain , Thunderstorm Heavy Thunderstorms and Rain
12:08 AM 62.6 °F - 60.8 °F 94% 29.62 in 4.0 mi SSE 16.1 mph 23.0 mph N/A Rain , Thunderstorm Heavy Thunderstorms and Rain
12:16 AM 62.6 °F - 60.8 °F 94% 29.61 in 4.0 mi SE 17.3 mph - N/A Rain , Thunderstorm Heavy Rain
12:17 AM 62.6 °F - 60.8 °F 94% 29.61 in 4.0 mi SE 18.4 mph 24.2 mph N/A Rain Heavy Rain
12:29 AM 62.6 °F - 60.8 °F 94% 29.60 in 4.0 mi SE 17.3 mph 24.2 mph N/A Rain Rain
12:35 AM 62.6 °F - 60.8 °F 94% 29.60 in 6.0 mi SE 15.0 mph 24.2 mph N/A Rain , Thunderstorm Light Rain
12:47 AM 62.6 °F - 60.8 °F 94% 29.59 in 7.0 mi SE 18.4 mph 26.5 mph N/A Rain , Thunderstorm Light Thunderstorms and Rain
12:49 AM 62.6 °F - 60.8 °F 94% 29.59 in 7.0 mi SE 16.1 mph 26.5 mph N/A Rain , Thunderstorm Thunderstorms and Rain
12:55 AM 61.9 °F - 61.5 °F 99% 29.60 in 7.0 mi SE 13.8 mph 23.0 mph 0.28 in Rain , Thunderstorm Thunderstorms and Rain
1:02 AM 62.6 °F - 60.8 °F 94% 29.61 in 5.0 mi SSE 12.7 mph 23.0 mph N/A Rain , Thunderstorm Rain
1:12 AM 62.6 °F - 60.8 °F 94% 29.59 in 3.0 mi Variable 6.9 mph - N/A Rain , Thunderstorm Heavy Rain
1:15 AM 62.6 °F - 60.8 °F 94% 29.57 in 3.0 mi Variable 3.5 mph - N/A Rain , Thunderstorm Heavy Rain
1:17 AM 62.6 °F - 60.8 °F 94% 29.58 in 2.5 mi Variable 3.5 mph - N/A Rain , Thunderstorm Heavy Rain
1:20 AM 62.6 °F - 60.8 °F 94% 29.59 in 2.5 mi Variable 5.8 mph - N/A Rain , Thunderstorm Heavy Rain
1:26 AM 62.6 °F - 60.8 °F 94% 29.58 in 2.0 mi NNW 11.5 mph - N/A Rain , Thunderstorm Heavy Rain
1:27 AM 62.6 °F - 60.8 °F 94% 29.58 in 1.8 mi NW 9.2 mph - N/A Rain , Thunderstorm Heavy Rain
1:28 AM 62.6 °F - 60.8 °F 94% 29.58 in 1.5 mi NW 6.9 mph - N/A Rain , Thunderstorm Heavy Rain
1:29 AM 62.6 °F - 60.8 °F 94% 29.57 in 1.0 mi Variable 3.5 mph - N/A Rain , Thunderstorm Heavy Rain
1:31 AM 62.6 °F - 60.8 °F 94% 29.55 in 0.8 mi East 11.5 mph - N/A Rain , Thunderstorm Heavy Rain
1:34 AM 62.6 °F - 60.8 °F 94% 29.58 in 0.8 mi SSW 9.2 mph - N/A Rain , Thunderstorm Heavy Rain
1:40 AM 62.6 °F - 60.8 °F 94% 29.60 in 1.0 mi West 9.2 mph - N/A Rain , Thunderstorm Heavy Rain
1:47 AM 62.6 °F - 60.8 °F 94% 29.59 in 1.0 mi Variable 4.6 mph - N/A Rain Heavy Rain
1:49 AM 62.6 °F - 60.8 °F 94% 29.58 in 1.2 mi Variable 5.8 mph - N/A Rain Heavy Rain
1:50 AM 62.6 °F - 62.6 °F 100% 29.58 in 1.2 mi WSW 5.8 mph - N/A Rain Heavy Rain
1:51 AM 62.6 °F - 62.6 °F 100% 29.58 in 1.5 mi WSW 4.6 mph - N/A Rain Heavy Rain
1:52 AM 62.6 °F - 62.6 °F 100% 29.59 in 1.8 mi Variable 4.6 mph - N/A Rain Heavy Rain
1:53 AM 62.6 °F - 62.6 °F 100% 29.59 in 2.0 mi SW 5.8 mph - N/A Rain Light Rain
1:55 AM 62.2 °F - 62.1 °F 99% 29.60 in 3.0 mi SSW 4.6 mph - 1.03 in Rain Light Rain
1:56 AM 62.6 °F - 62.6 °F 100% 29.60 in 4.0 mi Variable 4.6 mph - N/A Rain Light Rain
1:58 AM 62.6 °F - 62.6 °F 100% 29.59 in 5.0 mi Variable 4.6 mph - N/A Rain Light Rain
2:09 AM 62.6 °F - 62.6 °F 100% 29.58 in 8.0 mi Calm Calm - N/A Rain Light Rain
2:28 AM 62.6 °F - 60.8 °F 94% 29.58 in 10.0 mi SSE 10.4 mph - N/A   Overcast
2:39 AM 62.6 °F - 60.8 °F 94% 29.58 in 10.0 mi South 8.1 mph - N/A   Light Drizzle
2:49 AM 60.8 °F - 60.8 °F 100% 29.58 in 10.0 mi South 6.9 mph - N/A   Overcast
2:55 AM 61.5 °F - 59.9 °F 94% 29.58 in 10.0 mi South 9.2 mph - 0.03 in   Overcast
3:55 AM 61.2 °F - 55.4 °F 81% 29.57 in 10.0 mi SW 8.1 mph - N/A   Mostly Cloudy
4:55 AM 58.8 °F - 50.4 °F 73% 29.58 in 10.0 mi SSW 4.6 mph 23.0 mph N/A   Mostly Cloudy
5:55 AM 55.2 °F - 48.0 °F 77% 29.60 in 10.0 mi Variable 4.6 mph - N/A   Scattered Clouds
5:59 AM 55.4 °F - 48.2 °F 77% 29.60 in 10.0 mi Variable 6.9 mph - N/A   Mostly Cloudy
6:31 AM 55.4 °F - 48.2 °F 77% 29.62 in 10.0 mi SW 6.9 mph - N/A   Mostly Cloudy
6:51 AM 53.6 °F - 46.4 °F 77% 29.62 in 10.0 mi WSW 8.1 mph - N/A   Mostly Cloudy
6:55 AM 54.1 °F - 46.8 °F 76% 29.62 in 10.0 mi Variable 4.6 mph - N/A   Mostly Cloudy
7:55 AM 52.7 °F - 42.3 °F 68% 29.64 in 10.0 mi WSW 11.5 mph 21.9 mph N/A   Overcast
8:55 AM 47.5 °F - 38.5 °F 71% 29.71 in 10.0 mi West 12.7 mph 26.5 mph N/A   Overcast
9:03 AM 46.4 °F 39.2 °F 37.4 °F 71% 29.73 in 10.0 mi WNW 18.4 mph 26.5 mph N/A   Overcast
9:15 AM 44.6 °F 38.1 °F 33.8 °F 66% 29.74 in 10.0 mi West 13.8 mph 29.9 mph N/A   Overcast
9:55 AM 43.5 °F 36.4 °F 32.5 °F 65% 29.77 in 10.0 mi West 15.0 mph 27.6 mph N/A   Mostly Cloudy
10:16 AM 42.8 °F 36.2 °F 33.8 °F 70% 29.80 in 10.0 mi West 12.7 mph 21.9 mph N/A   Light Drizzle
10:25 AM 42.8 °F 34.0 °F 32.0 °F 66% 29.80 in 10.0 mi West 20.7 mph 33.4 mph N/A   Overcast
10:55 AM 42.3 °F 34.1 °F 32.0 °F 67% 29.81 in 10.0 mi West 17.3 mph 25.3 mph 0.00 in   Overcast
11:06 AM 42.8 °F 34.3 °F 32.0 °F 66% 29.82 in 10.0 mi West 19.6 mph 28.8 mph N/A Rain Light Rain
11:07 AM 42.8 °F 34.8 °F 32.0 °F 66% 29.82 in 10.0 mi West 17.3 mph 28.8 mph N/A Rain Light Rain
11:08 AM 42.8 °F 35.1 °F 32.0 °F 66% 29.82 in 10.0 mi WNW 16.1 mph 28.8 mph N/A Rain Light Rain
11:09 AM 42.8 °F 34.3 °F 32.0 °F 66% 29.82 in 10.0 mi WNW 19.6 mph 28.8 mph N/A Rain Light Rain
11:13 AM 42.8 °F 36.2 °F 32.0 °F 66% 29.82 in 10.0 mi West 12.7 mph 28.8 mph N/A Rain Light Rain
11:15 AM 42.8 °F 36.2 °F 33.8 °F 70% 29.82 in 10.0 mi WNW 12.7 mph 27.6 mph N/A   Overcast
11:22 AM 42.8 °F 36.2 °F 32.0 °F 66% 29.82 in 10.0 mi West 12.7 mph 25.3 mph N/A   Overcast
11:31 AM 42.8 °F 35.1 °F 32.0 °F 66% 29.83 in 10.0 mi West 16.1 mph 28.8 mph N/A   Overcast
11:51 AM 42.8 °F 35.4 °F 32.0 °F 66% 29.83 in 10.0 mi West 15.0 mph 20.7 mph N/A   Overcast
11:55 AM 42.4 °F 36.1 °F 32.7 °F 68% 29.83 in 10.0 mi West 11.5 mph 20.7 mph 0.00 in   Overcast
12:55 PM 41.5 °F 33.5 °F 32.2 °F 69% 29.83 in 10.0 mi West 16.1 mph 29.9 mph N/A   Overcast
1:55 PM 40.8 °F 32.3 °F 31.8 °F 70% 29.85 in 10.0 mi West 17.3 mph 25.3 mph N/A   Overcast
2:55 PM 40.8 °F 32.0 °F 31.3 °F 69% 29.87 in 10.0 mi WNW 18.4 mph 27.6 mph N/A   Overcast
3:55 PM 40.5 °F 32.1 °F 31.5 °F 70% 29.90 in 10.0 mi WNW 16.1 mph 23.0 mph N/A   Overcast
4:55 PM 39.7 °F 31.5 °F 31.1 °F 71% 29.93 in 10.0 mi WNW 15.0 mph - N/A   Overcast
5:55 PM 39.4 °F 31.8 °F 30.9 °F 72% 29.96 in 10.0 mi WNW 12.7 mph 23.0 mph N/A   Overcast
6:55 PM 39.4 °F 33.8 °F 31.5 °F 73% 29.99 in 10.0 mi WNW 8.1 mph - N/A   Overcast
7:55 PM 39.2 °F 32.5 °F 31.3 °F 73% 30.01 in 10.0 mi WNW 10.4 mph 17.3 mph N/A   Overcast
8:55 PM 39.0 °F 29.6 °F 30.9 °F 73% 30.04 in 10.0 mi WNW 18.4 mph 23.0 mph N/A   Overcast
9:55 PM 38.3 °F 29.7 °F 30.2 °F 73% 30.06 in 10.0 mi NW 15.0 mph - N/A   Overcast
10:55 PM 38.3 °F 30.9 °F 30.2 °F 73% 30.09 in 10.0 mi WNW 11.5 mph - N/A   Overcast
11:55 PM 38.1 °F 30.2 °F 30.0 °F 73% 30.08 in 10.0 mi NW 12.7 mph - N/A   Overcast